Preview of NWS' New Version of Forecast
This preview is not operational and should not be used for support decisions.

Regional Weather Roundup (RWR)

Issued by National Weather Service (NWS)

                            
000
ASUS43 KBIS 210410
RWRND 

NORTH DAKOTA REGIONAL WEATHER ROUNDUP
NATIONAL WEATHER SERVICE BISMARCK ND
1000 PM CST WED FEB 20 2019

NOTE: "FAIR" INDICATES FEW OR NO CLOUDS BELOW 12,000 FEET WITH NO
SIGNIFICANT WEATHER AND/OR OBSTRUCTIONS TO VISIBILITY.


NDZ001>003-009>011-017-210500-
NORTHWEST NORTH DAKOTA
  
CITY           SKY/WX    TMP DP  RH WIND       PRES   REMARKS
WILLISTON      MOCLDY     3  -3  76 SW5       29.81R WCI  -6          
MINOT          LGT SNOW  10   5  80 NW9       29.79R WCI  -3          
MINOT AFB      LGT SNOW   9   3  78 NW7       29.78R WCI  -3          
$$
 
NDZ018>021-031>035-040>046-210500-
SOUTHWEST NORTH DAKOTA
  
CITY           SKY/WX    TMP DP  RH WIND       PRES   REMARKS
BISMARCK       LGT SNOW  12   8  84 NW9       29.78R FOG     WCI   0  
DICKINSON      LGT SNOW   5   0  79 W8        29.73R WCI  -8          
GARRISON         N/A      9   6  88 NW9       29.77R WCI  -4          
HETTINGER ARPT CLEAR     -1  -4  87 NW8       29.76R WCI -15          
$$
 
NDZ004>008-012>016-024-026-027-054-210500-
NORTHEAST NORTH DAKOTA
  
CITY           SKY/WX    TMP DP  RH WIND       PRES   REMARKS
GRAND FORKS    FLURRIES  15  11  83 N12       29.74R WCI   2          
GRND FRKS AFB  LGT SNOW  15  13  90 N10       29.75R FOG     WCI   2  
DEVILS LAKE    LGT SNOW  13  10  88 N12       29.76R FOG     WCI  -1  
$$
 
NDZ022-023-025-028>030-036>039-047>053-210500-
SOUTHEAST NORTH DAKOTA
  
CITY           SKY/WX    TMP DP  RH WIND       PRES   REMARKS
FARGO          LGT SNOW  18  16  92 N5        29.70R FOG     WCI  11  
JAMESTOWN      LGT SNOW  14  12  92 NW14      29.71R FOG     WCI  -1  
$$